Location: ?????????
(54.7630°N, 39.4991°E)
Time: 07:00:00
(UTC+00:00)

YAOGAN 11 - Pass Details

Date: 14 April 2026
Orbit: 599 x 647 km, 98.4° (Epoch: 13 May)

Event Time Altitude Azimuth Distance (km) Brightness Sun altitude
Rises 17:44:52 0° 20° (NNE) 2,863 7.7 -11.3°
Reaches altitude 10° 17:47:08 10° 28° (NNE) 1,957 6.7 -11.5°
Maximum altitude 17:51:10 41° 99° (E) 883 4.4 -12.0°
Drops below altitude 10° 17:55:12 10° 170° (S) 1,959 6.2 -12.5°
Enters shadow 17:55:13 10° 170° (S) 1,964 6.2 -12.5°
